Presure
115 112 122 169 136 123 119 115 130 135 123 183 131 134 196 125 147 162 161 147 135 166 176 132 165 178 182 137 170 185 132 185 161 141 139 171 171 162 160 175 183 162 201 218 220
129 147 119 118 124 143 131 124 160 106 161 171 165 144 122 165 119 158 140 154 152 118 133 178 146 181 188 154 191 120 182 166 169 145 166 145 190 196 174 194 187 168 199 166 216
116 115 128 186 140 183 133 162 154 110 120 175 155 117 119 117 117 146 123 170 164 183 183 125 183 131 159 167 158 170 136 169 148 154 190 204 202 177 183 225 142 162 206 186 168
152 145 154 118 172 118 122 142 124 136 143 119 121 122 170 120 132 183 136 120 183 127 173 182 194 108 150 182 179 175 155 207 187 135 215 189 215 159 219 243 163 237 193 155 224
138 125 151 123 120 161 133 157 184 156 127 106 134 147 142 166 139 118 155 140 170 191 184 190 135 183 188 183 163 182 182 157 156 195 200 201 203 235 138 222 207 298 176 234 292
144 121 182 119 153 140 136 161 135 128 139 130 151 155 150 167 167 131 120 189 165 179 182 180 199 174 205 189 194 187 192 166 205 145 205 151 193 129 159 176 175 192 157 159 255
174 155 140 170 173 147 165 153 124 164 149 152 151 140 140 132 168 125 196 188 195 200 212 212 203 170 198 191 182 195 212 208 198 207 229 118 170 262 245 284 271 151 195 281 241
168 154 163 184 142 163 121 128 174 142 125 166 180 148 143 196 121 191 161 162 151 179 200 197 171 212 216 216 195 211 211 209 209 234 241 340 181 246 216 239 284 297 199 297 293
142 127 134 147 162 141 110 160 135 148 149 150 152 192 181 191 175 185 191 217 160 202 200 203 188 183 169 185 203 207 208 229 214 223 317 289 246 324 317 304 298 291 290 288 284
156 145 115 122 157 162 161 153 162 142 155 192 169 185 177 170 219 210 182 198 187 173 151 208 185 201 225 205 219 235 221 244 344 326 322 250 301 308 294 297 295 288 277 282 276
178 122 129 141 147 189 199 153 179 151 179 190 207 149 170 210 182 169 150 178 189 220 184 188 190 220 198 230 224 234 240 351 330 335 311 301 289 289 284 280 283 277 279 264 263
118 196 196 143 182 216 192 142 191 159 207 153 199 201 179 195 183 208 188 212 194 164 208 216 223 221 215 192 226 214 279 320 309 328 296 293 284 272 272 269 263 259 253 255 253
204 163 171 215 177 133 210 184 198 177 181 200 207 146 186 176 192 235 195 179 233 191 201 210 249 240 324 222 276 286 315 297 312 296 291 279 270 264 255 249 245 243 243 244 243
212 187 211 197 145 203 181 189 192 184 198 198 161 183 192 164 212 188 231 232 160 220 264 267 280 297 338 316 322 283 312 317 297 287 268 266 262 257 249 249 248 245 238 239 240
217 196 207 200 210 184 160 188 215 228 215 211 205 218 227 216 227 231 269 252 266 286 358 345 339 329 310 314 320 336 300 302 287 273 266 255 255 249 246 240 245 244 239 235 234
221 207 200 211 184 137 212 217 178 188 180 216 226 228 223 226 255 258 292 326 287 340 324 320 326 312 305 303 309 305 305 289 278 265 258 252 214 243 245 242 240 239 238 238 241
228 212 224 205 215 214 202 221 193 226 234 233 208 213 254 249 319 229 273 317 326 330 334 326 316 299 296 309 330 308 296 276 268 258 251 246 238 244 245 243 243 241 241 243 244
227 234 235 225 238 218 142 237 212 229 234 235 228 297 295 292 291 290 266 339 347 327 244 313 312 294 308 320 310 297 285 272 268 255 247 240 246 251 240 240 234 240 240 241 250
229 217 259 242 250 223 231 219 234 226 297 287 286 309 325 315 328 291 282 289 319 330 248 318 298 294 300 319 293 287 279 268 264 252 246 242 238 240 245 243 242 170 237 259 267
284 256 249 246 265 305 266 311 264 285 303 353 287 296 281 310 362 374 358 332 326 327 322 313 310 302 283 305 288 286 269 265 259 248 249 254 244 241 243 242 230 242 258 264 271
299 285 281 323 237 251 233 275 324 287 291 254 298 302 289 232 283 361 345 288 337 265 322 320 306 322 316 293 281 280 266 261 254 249 244 246 246 241 238 232 247 255 266 273 360
309 284 334 291 325 322 323 318 262 327 290 332 334 347 227 278 361 279 266 340 278 314 319 299 314 318 297 283 280 271 267 261 252 246 243 247 246 236 235 252 253 266 273 382 291
298 303 335 309 316 313 314 316 317 323 318 329 339 330 293 345 277 283 263 319 331 337 319 308 321 300 287 281 275 271 268 256 251 245 243 245 245 246 256 250 262 263 282 316 280
308 300 297 313 315 313 298 306 309 311 320 335 356 349 345 344 340 281 319 253 264 323 326 331 304 292 280 280 271 268 265 257 248 244 246 245 249 253 249 257 256 268 382 246 272
294 290 272 288 313 308 308 308 303 315 320 329 350 340 335 334 326 316 313 306 305 301 312 305 294 286 278 272 266 262 263 260 254 251 254 252 248 248 255 262 264 274 277 245 254
263 290 267 268 319 309 303 309 313 315 313 346 337 327 326 324 310 303 309 303 286 318 297 296 282 277 272 269 260 255 257 256 254 254 251 245 251 253 263 254 272 290 236 244 260
278 278 271 254 333 320 316 320 316 321 338 338 326 320 320 312 301 247 291 302 309 299 293 285 278 269 262 261 261 258 255 253 255 218 247 253 255 262 254 254 272 283 234 242 269
Wind_Speed
42 28 43 46 35 40 33 41 38 29 34 51 35 37 44 36 42 44 38 45 43 47 61 44 56 62 59 47 67 68 46 71 57 52 48 63 63 63 55 58 61 63 78 79 81
47 44 48 48 47 45 42 44 49 35 53 56 55 43 39 56 39 52 43 44 55 42 46 60 48 62 62 59 65 44 73 64 69 54 68 49 69 82 67 69 74 66 77 64 82
47 53 48 58 46 59 54 54 46 42 44 55 53 40 42 42 39 42 40 62 59 55 62 49 63 51 65 75 64 72 55 64 63 56 72 78 79 77 78 82 62 47 80 60 55
53 50 55 57 62 46 47 45 53 46 52 52 37 38 58 46 49 61 49 47 68 49 67 70 68 39 61 70 74 75 63 75 70 56 82 71 82 51 81 88 58 74 69 66 74
53 54 59 63 57 62 49 56 63 58 48 42 53 54 51 67 54 46 62 53 65 73 74 73 53 71 77 75 63 70 69 63 56 79 79 78 71 83 59 74 73 63 64 61 57
61 53 68 54 64 51 49 65 47 45 53 56 58 66 59 71 72 46 49 76 68 75 77 77 81 73 80 77 78 75 81 62 85 47 81 48 68 59 63 61 60 54 62 71 58
71 69 59 74 74 63 72 66 51 73 66 66 64 56 51 47 76 47 78 76 79 80 80 84 81 69 87 85 69 82 81 85 86 85 86 41 55 66 69 60 57 71 64 57 65
80 73 73 72 62 78 50 51 77 67 50 78 77 63 54 82 49 79 72 66 65 79 74 80 70 78 79 82 80 82 88 85 85 85 82 54 55 66 55 54 44 45 52 42 47
68 52 59 69 70 69 51 80 64 70 62 70 66 87 81 84 85 82 80 78 69 79 79 79 68 73 62 79 75 73 88 82 78 74 52 56 62 40 37 37 39 38 39 44 47
78 65 56 46 78 84 84 80 76 64 81 82 83 85 85 84 90 86 82 80 80 73 53 79 85 85 78 82 86 82 82 83 46 43 42 58 39 30 33 33 33 35 38 40 41
88 58 62 67 58 89 89 82 89 81 85 80 88 59 88 85 74 83 49 84 85 80 88 90 76 83 91 84 85 79 77 43 40 33 32 31 37 30 30 31 29 27 29 32 36
61 96 93 71 84 100 87 56 83 68 87 74 87 89 85 79 88 88 87 80 86 65 82 81 88 84 82 77 86 66 61 39 38 26 29 32 31 29 25 23 24 25 29 31 35
108 77 81 106 90 52 99 85 87 73 80 87 92 51 91 74 89 96 88 84 93 89 88 86 89 71 56 54 61 56 38 38 29 25 23 24 26 25 26 29 30 30 31 33 37
112 95 107 94 63 93 82 87 81 86 78 79 67 90 92 69 96 90 98 101 61 88 96 90 74 61 34 39 40 51 32 27 23 20 25 21 21 25 30 31 30 32 34 38 41
117 97 109 95 104 90 70 88 94 104 92 83 80 96 103 93 103 105 108 102 96 77 35 38 32 29 35 36 33 25 27 23 22 23 19 21 24 28 29 30 32 34 36 38 41
117 109 98 109 101 56 102 101 86 94 81 98 98 98 93 97 111 96 90 68 64 40 43 40 28 26 29 31 26 26 23 22 21 20 19 22 32 27 28 29 30 32 36 40 45
121 104 115 94 105 99 107 108 95 107 112 105 91 87 104 102 71 75 69 62 52 40 34 28 28 24 27 28 20 21 22 22 22 22 22 25 28 28 28 29 32 34 36 40 45
116 122 126 117 123 97 71 115 87 97 104 109 94 81 80 78 72 65 64 41 36 38 41 31 27 27 24 20 18 21 22 23 21 21 24 26 27 25 27 29 31 33 36 41 49
116 98 118 121 127 97 110 87 104 86 85 85 76 62 55 56 47 57 55 50 41 36 38 28 22 25 26 16 20 20 23 24 24 24 25 26 25 25 28 30 31 32 36 48 48
95 111 108 94 92 83 80 79 99 83 75 59 67 59 62 48 35 34 38 38 40 37 32 22 19 23 24 17 20 21 24 25 25 25 24 24 24 26 27 28 25 34 41 42 43
79 85 86 69 97 71 92 88 67 77 70 71 62 54 53 52 48 31 31 40 40 36 30 26 17 16 15 19 21 20 25 25 24 24 23 23 24 24 25 24 33 37 38 38 9
64 80 62 73 63 62 61 65 75 58 65 51 49 38 50 45 26 39 40 33 31 32 27 20 12 15 18 21 20 21 25 26 25 23 23 24 22 21 22 33 33 34 35 21 59
65 64 51 60 59 61 60 58 55 53 53 50 41 37 42 27 39 35 36 27 26 31 24 20 13 18 20 22 20 22 22 24 24 22 22 21 23 25 29 28 28 29 30 41 59
56 58 61 55 52 54 55 56 53 53 49 42 31 27 23 22 21 31 25 33 26 22 17 16 19 19 20 20 19 19 21 24 23 20 21 20 22 24 25 25 22 23 24 11 53
57 57 62 54 50 53 53 54 54 50 43 36 28 23 22 22 20 24 24 25 24 21 20 18 20 20 20 20 20 19 18 20 18 19 18 18 19 22 21 19 21 19 20 15 19
66 55 59 54 50 52 54 52 49 45 38 31 26 22 22 22 23 26 24 24 24 21 21 20 22 21 18 19 20 18 17 16 17 16 16 16 17 18 17 14 20 17 16 19 39
63 59 56 47 42 49 51 47 45 38 33 27 25 23 23 25 27 29 26 24 23 22 21 24 22 21 19 17 17 17 18 15 14 12 14 13 14 14 13 14 14 10 21 18 50
Wind_Direction
292 279 284 280 283 276 293 294 280 275 277 285 270 274 281 272 295 280 287 274 278 277 274 285 275 274 280 279 278 277 280 276 279 269 266 278 276 266 265 267 268 270 270 262 261
274 280 275 278 272 282 291 269 283 300 283 278 281 275 285 282 282 292 288 276 294 282 291 280 289 275 278 275 278 283 275 272 284 264 276 266 280 274 274 273 273 264 267 260 258
280 279 281 271 269 275 262 279 276 296 277 277 285 287 286 290 288 285 282 280 286 275 272 283 273 280 292 283 292 286 277 281 281 268 279 282 281 275 278 282 258 256 268 262 248
282 278 286 280 278 281 292 282 266 271 289 275 288 284 281 277 288 282 297 288 282 282 281 278 278 287 289 280 281 282 286 284 280 284 282 284 281 255 285 282 250 276 273 245 265
275 281 276 264 266 280 276 280 275 275 291 298 288 285 283 282 282 281 288 289 282 279 282 280 285 284 282 285 282 285 288 275 275 286 286 285 286 288 264 282 276 273 258 262 264
276 273 272 271 273 275 275 280 278 271 281 283 282 284 286 286 287 285 284 283 296 288 285 286 281 292 282 285 286 291 291 277 284 260 290 252 284 274 276 277 276 271 257 249 265
268 278 274 277 279 276 281 277 274 283 281 282 284 282 286 282 286 282 284 283 284 286 286 285 281 296 282 288 292 288 280 280 291 289 288 291 279 282 284 281 275 261 263 262 262
271 274 273 270 277 278 272 274 277 280 281 282 281 280 280 279 278 284 285 296 289 288 289 285 298 286 284 283 288 285 279 283 289 289 291 287 278 285 273 269 269 267 269 254 255
275 271 277 276 273 275 282 280 281 281 282 281 281 282 281 282 284 284 282 287 286 285 285 285 289 290 301 297 292 293 289 286 292 294 290 286 285 275 273 268 264 262 259 256 259
273 273 277 267 274 274 275 278 279 282 283 278 282 280 281 282 286 285 288 284 288 295 287 285 291 285 286 287 288 287 291 294 290 289 281 287 280 274 270 265 263 262 263 265 265
271 278 276 280 280 276 276 278 275 282 276 282 282 294 282 282 285 292 295 290 287 288 290 290 294 286 288 289 286 289 295 293 288 281 276 279 276 279 270 268 273 278 276 267 268
270 275 275 282 274 273 276 288 274 276 280 290 282 282 287 287 282 285 284 284 285 302 286 285 295 286 292 297 288 290 295 289 288 274 267 271 277 277 274 273 274 275 272 272 270
275 271 277 274 278 272 274 279 273 276 276 277 283 288 281 285 280 293 280 290 291 287 283 284 292 289 290 286 291 290 289 287 276 272 275 274 265 264 270 275 275 278 278 275 273
275 276 275 274 285 275 270 269 279 266 282 274 281 281 277 284 295 287 295 294 283 283 290 294 290 291 284 282 287 290 284 273 268 264 268 268 270 266 272 274 277 276 280 279 278
269 272 274 274 277 267 279 268 279 279 278 279 277 288 291 289 293 293 293 291 294 288 279 281 280 280 275 279 284 281 277 262 258 264 266 272 272 275 282 286 285 285 286 286 284
268 269 271 274 278 272 275 277 275 282 274 285 287 288 287 287 292 290 293 288 291 284 286 285 280 277 277 280 280 273 262 255 253 261 266 270 282 283 283 284 286 285 283 286 289
268 268 270 273 275 275 276 274 277 281 283 286 285 283 286 290 287 286 289 286 285 283 282 284 286 276 277 276 276 257 246 254 251 256 262 271 282 283 284 287 287 287 292 298 296
271 268 269 271 271 276 267 275 276 280 283 284 288 287 285 286 287 287 291 276 269 282 276 284 281 275 275 283 258 245 241 248 240 250 263 274 279 286 286 287 289 296 301 303 306
270 272 268 271 272 275 274 276 277 282 282 282 284 282 285 282 280 281 284 284 275 267 272 273 263 266 263 255 250 236 233 244 239 250 260 271 281 285 288 290 297 276 309 310 314
271 270 272 272 275 278 276 279 277 278 281 288 279 279 282 281 270 253 249 260 264 262 266 270 257 250 258 236 234 225 240 238 241 253 261 271 278 283 290 296 302 311 313 320 321
270 271 271 270 273 273 277 275 279 277 278 279 282 279 280 289 279 256 256 267 248 266 258 262 246 272 230 227 226 224 233 238 243 253 266 274 279 289 295 301 310 318 326 330 326
269 271 270 275 271 273 273 275 278 278 275 282 283 283 283 276 257 270 272 247 267 250 249 235 253 226 216 221 216 223 225 232 243 253 265 273 285 289 299 307 318 324 336 342 102
266 270 263 268 268 270 271 273 274 276 277 282 286 280 267 264 267 262 268 249 245 245 236 223 237 207 209 213 213 215 219 234 241 253 268 280 288 295 301 311 326 340 348 125 107
265 264 268 265 264 265 269 270 270 272 277 283 281 271 261 254 238 254 237 261 254 226 209 198 189 195 206 207 212 216 219 230 242 258 267 277 288 293 306 321 341 355 347 179 125
260 260 264 267 258 262 264 266 268 271 275 282 267 258 246 240 224 225 222 218 219 215 187 183 184 187 198 203 211 218 223 228 240 253 264 276 286 297 310 334 353 17 149 211 148
263 255 264 269 252 257 261 263 263 266 272 270 251 242 231 223 209 213 211 209 208 179 189 176 186 188 193 203 211 217 221 229 241 250 262 278 290 302 322 351 359 42 179 202 156
252 252 258 266 252 256 260 260 263 266 263 251 240 229 220 210 202 229 204 197 188 184 179 179 188 186 196 198 206 212 220 230 237 243 266 283 296 315 330 0 3 51 189 215 154